Hourly Data Report for September 27, 2017

All times are specified in Local Standard Time (LST). Add 1 hour to adjust for Daylight Saving Time where and when it is observed.

NORTH CAPE
PRINCE EDWARD ISLAND

47°03'29.000" N
63°59'55.000" W
7.60 m
8300516
71987
WNE

Download Data

Hourly Data (September 2017)
Hourly Data Report for September 27, 2017
Temp Definition
°C
Dew Point Temp Definition
°C
Rel Hum Definition
%
Wind Dir Definition
10's deg

Wind Spd Definition
km/h
Visibility Definition
km
Stn Press Definition
kPa
Hmdx Definition


Wind Chill Definition


Weather Definition


TIME
00:00 13.4 9.4 77 9 24   101.76     LegendNANA
01:00 13.7 9.9 78 9 24   101.74     LegendNANA
02:00 13.7 9.6 76 10 27   101.66     LegendNANA
03:00 13.8 9.5 75 10 23   101.67     LegendNANA
04:00 13.9 9.8 76 11 23   101.65     LegendNANA
05:00 13.8 9.9 78 11 27   101.55     LegendNANA
06:00 13.2 10.4 83 12 26   101.55     LegendNANA
07:00 13.6 10.6 82 11 30   101.52     LegendNANA
08:00 13.9 10.8 82 12 29   101.46     LegendNANA
09:00 14.2 11.0 81 13 30   101.37     LegendNANA
10:00 14.5 11.6 83 13 31   101.27     LegendNANA
11:00 14.8 11.7 82 14 23   101.22     LegendNANA
12:00 14.3 13.0 92 14 20   101.09     LegendNANA
13:00 14.3 13.2 93 16 9   101.01     LegendNANA
14:00 14.2 13.2 94 11 7   100.93     LegendNANA
15:00 14.2 13.4 94 15 8   100.84     LegendNANA
16:00 14.3 13.5 95 16 10   100.74     LegendNANA
17:00 14.2 13.5 95 16 10   100.65     LegendNANA
18:00 14.0 13.3 96 15 14   100.52     LegendNANA
19:00 15.3 14.6 96 17 10   100.47     LegendNANA
20:00 16.8 15.6 93 20 23   100.36     LegendNANA
21:00 16.8 15.6 92 21 23   100.24     LegendNANA
22:00 17.1 15.5 91 20 27   100.13     LegendNANA
23:00 17.9 15.4 86 21 35   100.09     LegendNANA

Notes on Data Quality.

Legend

  • E = Estimated
  • M = Missing
  • NA = Not Available
  • ‡ = Partner data that is not subject to review by the National Climate Archives
Date modified: